• în România
  • Lista ţărilor
  • Pe 7 zile
  • Temperatura apei
  • Hartă satelitară
  • Meteo pe hartă
  • Widget-uri
  • user-avatar
    Intrare

    Meteo pe oră la Polyaki

    Astăzi, 20 Aprilie, Vineri

    Timp Temperatura Precipitaţii Vânt Presiune Umiditate
    00:00 +5°C° 0 mm 3 m/s 747 mmHg 86%
    01:00 +5°C° 0 mm 3 m/s 747 mmHg 89%
    02:00 +5°C° 0 mm 3 m/s 748 mmHg 91%
    03:00 +4°C° 0 mm 3 m/s 748 mmHg 93%
    04:00 +4°C° 0 mm 3 m/s 748 mmHg 95%
    05:00 +4°C° 0 mm 3 m/s 748 mmHg 96%
    06:00 +5°C° 0 mm 3 m/s 748 mmHg 94%
    07:00 +5°C° 0 mm 3 m/s 749 mmHg 91%
    08:00 +7°C° 0 mm 3 m/s 749 mmHg 89%
    09:00 +8°C° 0 mm 3 m/s 749 mmHg 84%
    10:00 +9°C° 0 mm 3 m/s 749 mmHg 79%
    11:00 +10°C° 0 mm 3 m/s 749 mmHg 74%
    12:00 +11°C° 0 mm 3 m/s 749 mmHg 69%
    13:00 +13°C° 0 mm 2 m/s 749 mmHg 63%
    14:00 +14°C° 0 mm 2 m/s 748 mmHg 57%
    15:00 +14°C° 0 mm 2 m/s 748 mmHg 57%
    16:00 +15°C° 0 mm 2 m/s 747 mmHg 56%
    17:00 +15°C° 0 mm 2 m/s 747 mmHg 56%
    18:00 +13°C° 0 mm 2 m/s 746 mmHg 63%
    19:00 +10°C° 0 mm 2 m/s 746 mmHg 70%
    20:00 +9°C° 0 mm 2 m/s 745 mmHg 77%
    21:00 +9°C° 0 mm 2 m/s 745 mmHg 77%
    22:00 +9°C° 0 mm 3 m/s 744 mmHg 76%
    23:00 +9°C° 0 mm 3 m/s 743 mmHg 75%

    Mâine, 21 Aprilie, Sâmbătă

    Timp Temperatura Precipitaţii Vânt Presiune Umiditate
    00:00 +9°C° 0 mm 3 m/s 742 mmHg 79%
    01:00 +8°C° 0 mm 4 m/s 741 mmHg 82%
    02:00 +8°C° 0 mm 4 m/s 741 mmHg 85%
    03:00 +8°C° 0 mm 4 m/s 740 mmHg 87%
    04:00 +8°C° 0 mm 4 m/s 739 mmHg 89%
    05:00 +8°C° 0 mm 4 m/s 738 mmHg 91%
    06:00 +9°C° 0 mm 5 m/s 737 mmHg 87%
    07:00 +10°C° 0 mm 5 m/s 736 mmHg 83%
    08:00 +11°C° 0 mm 6 m/s 735 mmHg 79%
    09:00 +11°C° 0,2 mm 6 m/s 734 mmHg 79%
    10:00 +13°C° 0,2 mm 6 m/s 733 mmHg 79%
    11:00 +13°C° 0,2 mm 6 m/s 732 mmHg 79%
    12:00 +12°C° 0,3 mm 7 m/s 732 mmHg 73%
    13:00 +12°C° 0,3 mm 8 m/s 732 mmHg 67%
    14:00 +12°C° 0,3 mm 9 m/s 732 mmHg 60%
    15:00 +11°C° 0 mm 8 m/s 733 mmHg 61%
    16:00 +10°C° 0 mm 7 m/s 734 mmHg 62%
    17:00 +9°C° 0 mm 6 m/s 734 mmHg 62%
    18:00 +8°C° 0,1 mm 6 m/s 735 mmHg 65%
    19:00 +8°C° 0,1 mm 5 m/s 735 mmHg 68%
    20:00 +7°C° 0,1 mm 5 m/s 735 mmHg 71%
    21:00 +7°C° 0 mm 5 m/s 735 mmHg 72%
    22:00 +6°C° 0 mm 5 m/s 736 mmHg 74%
    23:00 +6°C° 0 mm 5 m/s 736 mmHg 75%

    Poimâine, 22 Aprilie, Duminică

    Timp Temperatura Precipitaţii Vânt Presiune Umiditate
    00:00 +5°C° 0 mm 5 m/s 736 mmHg 75%
    01:00 +5°C° 0 mm 5 m/s 736 mmHg 76%
    02:00 +5°C° 0 mm 5 m/s 736 mmHg 77%
    03:00 +5°C° 0,1 mm 5 m/s 737 mmHg 78%
    04:00 +5°C° 0,1 mm 5 m/s 737 mmHg 79%
    05:00 +3°C° 0,1 mm 5 m/s 737 mmHg 81%
    06:00 +5°C° 0,1 mm 5 m/s 737 mmHg 80%
    07:00 +5°C° 0,1 mm 5 m/s 737 mmHg 79%
    08:00 +5°C° 0,1 mm 5 m/s 738 mmHg 78%
    09:00 +5°C° 0,1 mm 5 m/s 738 mmHg 76%
    10:00 +6°C° 0,1 mm 5 m/s 738 mmHg 74%
    11:00 +6°C° 0,1 mm 5 m/s 738 mmHg 72%
    12:00 +7°C° 0,3 mm 5 m/s 738 mmHg 70%
    13:00 +7°C° 0,3 mm 5 m/s 738 mmHg 68%
    14:00 +8°C° 0,3 mm 5 m/s 738 mmHg 65%
    15:00 +7°C° 0,3 mm 4 m/s 739 mmHg 68%
    16:00 +7°C° 0,3 mm 4 m/s 739 mmHg 70%
    17:00 +7°C° 0,3 mm 4 m/s 739 mmHg 72%
    18:00 +5°C° 0,1 mm 3 m/s 739 mmHg 77%
    19:00 +5°C° 0,1 mm 2 m/s 740 mmHg 82%
    20:00 +4°C° 0,1 mm 2 m/s 740 mmHg 87%
    21:00 +4°C° 0 mm 2 m/s 740 mmHg 88%
    22:00 +4°C° 0 mm 1 m/s 741 mmHg 89%
    23:00 +4°C° 0 mm 1 m/s 741 mmHg 91%

    23 Aprilie, Luni

    Timp Temperatura Precipitaţii Vânt Presiune Umiditate
    00:00 +3°C° 0 mm 1 m/s 741 mmHg 90%
    01:00 +3°C° 0 mm 1 m/s 742 mmHg 90%
    02:00 +2°C° 0 mm 1 m/s 742 mmHg 90%
    03:00 +2°C° 0 mm 1 m/s 742 mmHg 89%
    04:00 +1°C° 0 mm 1 m/s 743 mmHg 88%
    05:00 +1°C° 0 mm 1 m/s 743 mmHg 87%
    06:00 +2°C° 0 mm 1 m/s 743 mmHg 78%
    07:00 +4°C° 0 mm 1 m/s 743 mmHg 70%
    08:00 +6°C° 0 mm 1 m/s 744 mmHg 61%
    09:00 +7°C° 0 mm 1 m/s 744 mmHg 54%
    10:00 +7°C° 0 mm 2 m/s 744 mmHg 48%
    11:00 +8°C° 0 mm 2 m/s 744 mmHg 42%
    12:00 +8°C° 0 mm 2 m/s 744 mmHg 39%
    13:00 +9°C° 0 mm 2 m/s 744 mmHg 37%
    14:00 +9°C° 0 mm 2 m/s 744 mmHg 34%
    15:00 +9°C° 0 mm 2 m/s 743 mmHg 35%
    16:00 +9°C° 0 mm 2 m/s 743 mmHg 36%
    17:00 +9°C° 0 mm 2 m/s 743 mmHg 38%
    18:00 +7°C° 0 mm 2 m/s 743 mmHg 44%
    19:00 +6°C° 0 mm 1 m/s 743 mmHg 51%
    20:00 +4°C° 0 mm 1 m/s 743 mmHg 57%
    21:00 +4°C° 0 mm 1 m/s 743 mmHg 60%
    22:00 +3°C° 0 mm 1 m/s 743 mmHg 62%
    23:00 +1°C° 0 mm 2 m/s 743 mmHg 64%

    24 Aprilie, Marţi

    Timp Temperatura Precipitaţii Vânt Presiune Umiditate
    00:00 +1°C° 0 mm 2 m/s 743 mmHg 66%
    01:00 +1°C° 0 mm 2 m/s 742 mmHg 68%
    02:00 -1°C° 0 mm 2 m/s 742 mmHg 70%
    03:00 -1°C° 0 mm 2 m/s 742 mmHg 71%
    04:00 -1°C° 0 mm 2 m/s 742 mmHg 71%
    05:00 -1°C° 0 mm 2 m/s 742 mmHg 71%
    06:00 +1°C° 0 mm 3 m/s 741 mmHg 67%
    07:00 +3°C° 0 mm 3 m/s 741 mmHg 62%
    08:00 +4°C° 0 mm 3 m/s 741 mmHg 57%
    09:00 +6°C° 0 mm 4 m/s 740 mmHg 53%
    10:00 +7°C° 0 mm 4 m/s 740 mmHg 49%
    11:00 +10°C° 0 mm 4 m/s 740 mmHg 45%
    12:00 +10°C° 0 mm 4 m/s 740 mmHg 45%
    13:00 +11°C° 0 mm 4 m/s 739 mmHg 45%
    14:00 +11°C° 0 mm 4 m/s 739 mmHg 45%
    15:00 +10°C° 0,1 mm 4 m/s 739 mmHg 50%
    16:00 +9°C° 0,1 mm 3 m/s 738 mmHg 56%
    17:00 +9°C° 0,1 mm 3 m/s 738 mmHg 62%
    18:00 +8°C° 0,1 mm 3 m/s 738 mmHg 67%
    19:00 +7°C° 0,1 mm 3 m/s 738 mmHg 73%
    20:00 +5°C° 0,1 mm 3 m/s 738 mmHg 79%
    21:00 +5°C° 0,1 mm 3 m/s 738 mmHg 82%
    22:00 +6°C° 0,1 mm 2 m/s 738 mmHg 84%
    23:00 +6°C° 0,1 mm 2 m/s 737 mmHg 87%

    25 Aprilie, Miercuri

    Timp Temperatura Precipitaţii Vânt Presiune Umiditate
    00:00 +6°C° 0,1 mm 2 m/s 737 mmHg 89%
    01:00 +6°C° 0,1 mm 2 m/s 737 mmHg 90%
    02:00 +6°C° 0,1 mm 2 m/s 737 mmHg 92%
    03:00 +6°C° 0,1 mm 2 m/s 738 mmHg 92%
    04:00 +5°C° 0,1 mm 2 m/s 738 mmHg 93%
    05:00 +5°C° 0,1 mm 2 m/s 738 mmHg 93%
    06:00 +6°C° 0,1 mm 2 m/s 738 mmHg 91%
    07:00 +6°C° 0,1 mm 2 m/s 738 mmHg 89%
    08:00 +5°C° 0,1 mm 3 m/s 738 mmHg 87%
    09:00 +7°C° 0 mm 3 m/s 738 mmHg 84%
    10:00 +8°C° 0 mm 3 m/s 738 mmHg 80%
    11:00 +8°C° 0 mm 3 m/s 739 mmHg 77%
    12:00 +9°C° 0 mm 3 m/s 738 mmHg 72%
    13:00 +10°C° 0 mm 3 m/s 738 mmHg 67%
    14:00 +11°C° 0 mm 3 m/s 738 mmHg 63%
    15:00 +11°C° 0 mm 3 m/s 737 mmHg 62%
    16:00 +11°C° 0 mm 3 m/s 737 mmHg 62%
    17:00 +11°C° 0 mm 3 m/s 736 mmHg 61%
    18:00 +11°C° 0,3 mm 4 m/s 736 mmHg 68%
    19:00 +10°C° 0,3 mm 4 m/s 735 mmHg 74%
    20:00 +8°C° 0,3 mm 4 m/s 735 mmHg 81%
    21:00 +8°C° 1,1 mm 4 m/s 734 mmHg 84%
    22:00 +8°C° 1,1 mm 5 m/s 734 mmHg 87%
    23:00 +8°C° 1,1 mm 5 m/s 733 mmHg 91%
    Arată mai mult